Time,TemperatureF,DewpointF,PressureIn,WindDirection,WindDirectionDegrees,WindSpeedMPH,WindSpeedGustMPH,Humidity,HourlyPrecipIn,Conditions,Clouds,dailyrainin,SoftwareType,DateUTC
2013-01-01 00:00:00,38.3,21.8,29.99,WNW,293,0.7,1.8,51,0.00,,,0.00,WUHU216HW,2013-01-01 05:00:00,
2013-01-01 00:02:00,38.3,21.8,30.00,WNW,293,0.0,1.8,51,0.00,,,0.00,WUHU216HW,2013-01-01 05:02:00,
2013-01-01 00:03:00,38.5,22.0,30.00,WNW,293,1.1,1.8,51,0.00,,,0.00,WUHU216HW,2013-01-01 05:03:00,
2013-01-01 00:08:00,38.7,22.1,29.99,West,270,0.9,1.1,51,0.00,,,0.00,WUHU216HW,2013-01-01 05:08:00,
2013-01-01 00:13:00,39.1,22.4,29.99,NNE,23,0.7,1.6,51,0.00,,,0.00,WUHU216HW,2013-01-01 05:13:00,
2013-01-01 00:18:00,39.2,22.6,29.99,WNW,293,0.9,1.6,51,0.00,,,0.00,WUHU216HW,2013-01-01 05:18:00,
2013-01-01 00:23:00,39.2,22.6,29.99,WNW,293,1.3,1.3,51,0.00,,,0.00,WUHU216HW,2013-01-01 05:23:00,
2013-01-01 00:28:00,39.4,22.8,29.99,WNW,293,1.3,1.3,51,0.00,,,0.00,WUHU216HW,2013-01-01 05:28:00,
2013-01-01 00:33:00,39.6,22.9,29.99,West,270,1.1,1.6,51,0.00,,,0.00,WUHU216HW,2013-01-01 05:33:00,
2013-01-01 00:38:00,40.0,23.2,29.99,WNW,293,0.9,1.6,51,0.00,,,0.00,WUHU216HW,2013-01-01 05:38:00,
2013-01-01 00:43:00,40.0,23.2,29.98,West,270,0.0,1.3,51,0.00,,,0.00,WUHU216HW,2013-01-01 05:43:00,
2013-01-01 00:48:00,40.0,23.2,29.99,WNW,293,0.0,1.6,51,0.00,,,0.00,WUHU216HW,2013-01-01 05:48:00,
2013-01-01 00:53:00,40.0,23.7,29.99,NW,315,1.1,1.6,52,0.00,,,0.00,WUHU216HW,2013-01-01 05:53:00,
2013-01-01 00:58:00,39.6,23.3,29.98,WNW,293,1.1,1.1,52,0.00,,,0.00,WUHU216HW,2013-01-01 05:58:00,
2013-01-01 01:03:00,39.6,23.3,29.99,WSW,248,1.1,1.8,52,0.00,,,0.00,WUHU216HW,2013-01-01 06:03:00,
2013-01-01 01:08:00,39.8,23.5,29.99,West,270,0.9,1.8,52,0.00,,,0.00,WUHU216HW,2013-01-01 06:08:00,
2013-01-01 01:13:00,40.0,23.7,29.99,West,270,0.4,1.1,52,0.00,,,0.00,WUHU216HW,2013-01-01 06:13:00,
2013-01-01 01:18:00,40.0,23.7,29.99,West,270,0.7,1.1,52,0.00,,,0.00,WUHU216HW,2013-01-01 06:18:00,
2013-01-01 01:23:00,40.0,24.1,30.00,WNW,293,1.8,2.0,53,0.00,,,0.00,WUHU216HW,2013-01-01 06:23:00,
2013-01-01 01:28:00,39.6,23.8,29.99,NNW,338,0.4,2.0,53,0.00,,,0.00,WUHU216HW,2013-01-01 06:28:00,
2013-01-01 01:33:00,39.4,23.6,29.99,NNE,23,0.7,1.8,53,0.00,,,0.00,WUHU216HW,2013-01-01 06:33:00,
2013-01-01 01:38:00,39.2,23.9,29.99,NW,315,2.5,2.9,54,0.00,,,0.00,WUHU216HW,2013-01-01 06:38:00,
2013-01-01 01:43:00,39.2,24.3,29.99,NE,45,0.7,2.9,55,0.00,,,0.00,WUHU216HW,2013-01-01 06:43:00,
2013-01-01 01:48:00,38.7,23.9,29.98,NNE,23,1.8,3.4,55,0.00,,,0.00,WUHU216HW,2013-01-01 06:48:00,
2013-01-01 01:53:00,39.1,24.6,29.98,NW,315,1.8,3.4,56,0.00,,,0.00,WUHU216HW,2013-01-01 06:53:00,
2013-01-01 01:58:00,39.1,24.1,29.99,SSW,203,0.4,2.5,55,0.00,,,0.00,WUHU216HW,2013-01-01 06:58:00,
2013-01-01 02:03:00,38.5,24.5,29.99,ENE,68,1.1,2.0,57,0.00,,,0.00,WUHU216HW,2013-01-01 07:03:00,
2013-01-01 02:08:00,38.3,24.4,29.99,WNW,293,2.7,2.7,57,0.00,,,0.00,WUHU216HW,2013-01-01 07:08:00,
2013-01-01 02:13:00,40.3,24.8,29.98,NW,315,2.5,2.9,54,0.00,,,0.00,WUHU216HW,2013-01-01 07:13:00,
2013-01-01 02:18:00,40.7,25.2,29.99,NW,315,2.5,2.9,54,0.00,,,0.00,WUHU216HW,2013-01-01 07:18:00,
2013-01-01 02:24:00,41.4,25.5,29.98,West,270,1.8,3.6,53,0.00,,,0.00,WUHU216HW,2013-01-01 07:24:00,
2013-01-01 02:29:00,41.8,25.4,29.98,WNW,293,2.5,4.7,52,0.00,,,0.00,WUHU216HW,2013-01-01 07:29:00,
2013-01-01 02:34:00,41.8,24.9,29.98,West,270,2.7,5.4,51,0.00,,,0.00,WUHU216HW,2013-01-01 07:34:00,
2013-01-01 02:39:00,41.6,25.2,29.98,West,270,2.5,5.4,52,0.00,,,0.00,WUHU216HW,2013-01-01 07:39:00,
2013-01-01 02:44:00,41.9,25.1,29.98,WNW,293,4.3,5.6,51,0.00,,,0.00,WUHU216HW,2013-01-01 07:44:00,
2013-01-01 02:49:00,42.1,25.3,29.97,West,270,3.4,5.6,51,0.00,,,0.00,WUHU216HW,2013-01-01 07:49:00,
2013-01-01 02:54:00,41.9,25.1,29.98,West,270,1.8,4.0,51,0.00,,,0.00,WUHU216HW,2013-01-01 07:54:00,
2013-01-01 02:59:00,41.6,25.2,30.00,West,270,1.6,2.9,52,0.00,,,0.00,WUHU216HW,2013-01-01 07:59:00,
2013-01-01 03:04:00,41.2,25.3,29.97,WNW,293,0.0,2.9,53,0.00,,,0.00,WUHU216HW,2013-01-01 08:04:00,
2013-01-01 03:09:00,40.9,24.9,29.97,WSW,248,0.0,1.1,53,0.00,,,0.00,WUHU216HW,2013-01-01 08:09:00,
2013-01-01 03:14:00,40.3,24.8,29.98,WNW,293,0.0,0.7,54,0.00,,,0.00,WUHU216HW,2013-01-01 08:14:00,
2013-01-01 03:19:00,40.0,25.4,29.98,SSE,158,1.8,1.8,56,0.00,,,0.00,WUHU216HW,2013-01-01 08:19:00,
2013-01-01 03:24:00,39.6,25.1,29.98,ESE,113,0.4,1.8,56,0.00,,,0.00,WUHU216HW,2013-01-01 08:24:00,
2013-01-01 03:29:00,39.2,24.8,29.98,ENE,68,0.4,1.3,56,0.00,,,0.00,WUHU216HW,2013-01-01 08:29:00,
2013-01-01 03:34:00,38.9,24.8,29.97,SE,135,0.0,1.3,57,0.00,,,0.00,WUHU216HW,2013-01-01 08:34:00,
2013-01-01 03:39:00,38.7,24.7,29.99,North,0,0.0,1.1,57,0.00,,,0.00,WUHU216HW,2013-01-01 08:39:00,
2013-01-01 03:44:00,38.3,25.2,29.99,NNW,338,0.0,1.1,59,0.00,,,0.00,WUHU216HW,2013-01-01 08:44:00,
2013-01-01 03:49:00,37.8,24.8,29.98,NNW,338,0.0,0.4,59,0.00,,,0.00,WUHU216HW,2013-01-01 08:49:00,
2013-01-01 03:54:00,37.8,24.8,29.99,North,0,0.4,0.7,59,0.00,,,0.00,WUHU216HW,2013-01-01 08:54:00,
2013-01-01 03:59:00,37.6,24.6,29.99,SSW,203,0.0,0.7,59,0.00,,,0.00,WUHU216HW,2013-01-01 08:59:00,
2013-01-01 04:04:00,37.4,24.8,29.98,West,270,0.0,0.4,60,0.00,,,0.00,WUHU216HW,2013-01-01 09:04:00,
2013-01-01 04:09:00,37.3,24.7,29.98,WSW,248,0.0,0.4,60,0.00,,,0.00,WUHU216HW,2013-01-01 09:09:00,
2013-01-01 04:14:00,37.3,24.7,29.98,WNW,293,0.4,0.4,60,0.00,,,0.00,WUHU216HW,2013-01-01 09:14:00,
2013-01-01 04:19:00,37.1,25.3,29.98,SW,225,0.2,0.4,62,0.00,,,0.00,WUHU216HW,2013-01-01 09:19:00,
2013-01-01 04:24:00,36.9,24.8,29.98,WSW,248,0.4,0.4,61,0.00,,,0.00,WUHU216HW,2013-01-01 09:24:00,
2013-01-01 04:29:00,37.1,25.3,29.98,WNW,293,0.0,1.8,62,0.00,,,0.00,WUHU216HW,2013-01-01 09:29:00,
2013-01-01 04:34:00,37.1,24.9,29.99,WNW,293,1.8,1.8,61,0.00,,,0.00,WUHU216HW,2013-01-01 09:34:00,
2013-01-01 04:39:00,37.8,26.3,30.00,West,270,1.1,2.0,63,0.00,,,0.00,WUHU216HW,2013-01-01 09:39:00,
2013-01-01 04:44:00,38.5,26.6,30.00,West,270,1.6,2.0,62,0.00,,,0.00,WUHU216HW,2013-01-01 09:44:00,
2013-01-01 04:49:00,39.2,27.2,29.99,SSW,203,0.4,2.0,62,0.00,,,0.00,WUHU216HW,2013-01-01 09:49:00,
2013-01-01 04:54:00,39.4,27.0,30.00,SSW,203,2.2,2.2,61,0.00,,,0.00,WUHU216HW,2013-01-01 09:54:00,
2013-01-01 04:59:00,39.6,27.2,29.97,WSW,248,1.8,3.6,61,0.00,,,0.00,WUHU216HW,2013-01-01 09:59:00,
2013-01-01 05:04:00,40.0,27.5,29.98,West,270,1.1,3.6,61,0.00,,,0.00,WUHU216HW,2013-01-01 10:04:00,
2013-01-01 05:09:00,40.1,27.7,29.98,West,270,2.5,2.5,61,0.00,,,0.00,WUHU216HW,2013-01-01 10:09:00,
2013-01-01 05:14:00,40.3,27.9,29.98,West,270,1.1,2.5,61,0.00,,,0.00,WUHU216HW,2013-01-01 10:14:00,
2013-01-01 05:19:00,40.3,27.9,29.96,West,270,1.8,1.8,61,0.00,,,0.00,WUHU216HW,2013-01-01 10:19:00,
2013-01-01 05:24:00,40.3,27.9,29.98,West,270,0.9,3.4,61,0.00,,,0.00,WUHU216HW,2013-01-01 10:24:00,
2013-01-01 05:29:00,40.3,27.9,29.97,West,270,1.8,3.4,61,0.00,,,0.00,WUHU216HW,2013-01-01 10:29:00,
2013-01-01 05:34:00,40.3,28.3,29.98,WSW,248,2.0,2.5,62,0.00,,,0.00,WUHU216HW,2013-01-01 10:34:00,
2013-01-01 05:39:00,40.1,28.1,29.97,WNW,293,2.0,2.7,62,0.00,,,0.00,WUHU216HW,2013-01-01 10:39:00,
2013-01-01 05:44:00,40.1,28.5,29.98,West,270,2.9,3.1,63,0.00,,,0.00,WUHU216HW,2013-01-01 10:44:00,
2013-01-01 05:49:00,40.1,28.5,29.97,West,270,1.3,3.1,63,0.00,,,0.00,WUHU216HW,2013-01-01 10:49:00,
2013-01-01 05:54:00,40.1,28.5,29.98,WSW,248,1.1,3.1,63,0.00,,,0.00,WUHU216HW,2013-01-01 10:54:00,
2013-01-01 05:59:00,40.0,28.4,29.96,WNW,293,0.9,3.1,63,0.00,,,0.00,WUHU216HW,2013-01-01 10:59:00,
2013-01-01 06:04:00,40.1,28.5,29.98,North,0,0.7,1.6,63,0.00,,,0.00,WUHU216HW,2013-01-01 11:04:00,
2013-01-01 06:10:00,40.0,28.4,29.97,NNW,338,0.4,1.8,63,0.00,,,0.00,WUHU216HW,2013-01-01 11:10:00,
2013-01-01 06:15:00,40.0,28.7,29.96,NE,45,0.4,1.8,64,0.00,,,0.00,WUHU216HW,2013-01-01 11:15:00,
2013-01-01 06:20:00,40.0,28.4,29.98,NW,315,0.9,1.8,63,0.00,,,0.00,WUHU216HW,2013-01-01 11:20:00,
2013-01-01 06:25:00,40.0,28.7,29.97,West,270,0.4,1.8,64,0.00,,,0.00,WUHU216HW,2013-01-01 11:25:00,
2013-01-01 06:30:00,40.0,28.4,29.97,NW,315,1.1,1.8,63,0.00,,,0.00,WUHU216HW,2013-01-01 11:30:00,
2013-01-01 06:35:00,39.8,28.2,29.98,WNW,293,1.8,2.0,63,0.00,,,0.00,WUHU216HW,2013-01-01 11:35:00,
2013-01-01 06:40:00,39.6,28.4,29.97,WSW,248,0.2,2.0,64,0.00,,,0.00,WUHU216HW,2013-01-01 11:40:00,
2013-01-01 06:45:00,39.4,28.2,29.98,SSW,203,1.1,2.5,64,0.00,,,0.00,WUHU216HW,2013-01-01 11:45:00,
2013-01-01 06:50:00,39.2,28.0,29.96,WSW,248,1.8,3.1,64,0.00,,,0.00,WUHU216HW,2013-01-01 11:50:00,
2013-01-01 06:55:00,39.4,28.2,29.96,WNW,293,0.7,3.1,64,0.00,,,0.00,WUHU216HW,2013-01-01 11:55:00,
2013-01-01 07:00:00,39.2,28.4,29.97,NW,315,0.7,1.8,65,0.00,,,0.00,WUHU216HW,2013-01-01 12:00:00,
2013-01-01 07:05:00,39.2,28.4,29.95,NW,315,0.0,1.8,65,0.00,,,0.00,WUHU216HW,2013-01-01 12:05:00,
2013-01-01 07:10:00,39.2,28.4,29.95,SW,225,0.2,2.9,65,0.00,,,0.00,WUHU216HW,2013-01-01 12:10:00,
2013-01-01 07:15:00,39.1,28.2,29.96,West,270,0.4,2.9,65,0.00,,,0.00,WUHU216HW,2013-01-01 12:15:00,
2013-01-01 07:20:00,39.1,28.2,29.97,West,270,0.0,1.1,65,0.00,,,0.00,WUHU216HW,2013-01-01 12:20:00,
2013-01-01 07:25:00,38.9,28.5,29.96,NNW,338,0.4,0.7,66,0.00,,,0.00,WUHU216HW,2013-01-01 12:25:00,
2013-01-01 07:30:00,38.7,28.3,29.97,NW,315,0.4,0.4,66,0.00,,,0.00,WUHU216HW,2013-01-01 12:30:00,
2013-01-01 07:35:00,38.5,28.4,29.97,NW,315,0.0,0.9,67,0.00,,,0.00,WUHU216HW,2013-01-01 12:35:00,
2013-01-01 07:40:00,38.2,28.2,29.95,NW,315,0.0,0.9,67,0.00,,,0.00,WUHU216HW,2013-01-01 12:40:00,
2013-01-01 07:45:00,38.2,28.2,29.96,NW,315,0.0,0.2,67,0.00,,,0.00,WUHU216HW,2013-01-01 12:45:00,
2013-01-01 07:50:00,38.2,28.5,29.96,NNW,338,1.1,1.1,68,0.00,,,0.00,WUHU216HW,2013-01-01 12:50:00,
2013-01-01 07:55:00,38.2,28.5,29.96,NNW,338,0.4,1.1,68,0.00,,,0.00,WUHU216HW,2013-01-01 12:55:00,
2013-01-01 08:00:00,38.3,28.7,29.95,NNW,338,0.0,1.1,68,0.00,,,0.00,WUHU216HW,2013-01-01 13:00:00,
2013-01-01 08:05:00,38.2,28.5,29.96,NNW,338,0.4,0.4,68,0.00,,,0.00,WUHU216HW,2013-01-01 13:05:00,
2013-01-01 08:10:00,38.2,28.5,29.97,NNW,338,0.4,0.4,68,0.00,,,0.00,WUHU216HW,2013-01-01 13:10:00,
2013-01-01 08:15:00,38.2,28.9,29.97,WNW,293,0.0,0.4,69,0.00,,,0.00,WUHU216HW,2013-01-01 13:15:00,
2013-01-01 08:20:00,38.2,28.9,29.96,WNW,293,0.0,0.4,69,0.00,,,0.00,WUHU216HW,2013-01-01 13:20:00,
2013-01-01 08:25:00,38.2,28.5,29.96,WNW,293,0.0,0.0,68,0.00,,,0.00,WUHU216HW,2013-01-01 13:25:00,
2013-01-01 08:30:00,38.2,28.9,29.98,West,270,0.4,1.1,69,0.00,,,0.00,WUHU216HW,2013-01-01 13:30:00,
2013-01-01 08:35:00,38.3,28.7,29.98,West,270,0.2,1.1,68,0.00,,,0.00,WUHU216HW,2013-01-01 13:35:00,
2013-01-01 08:41:00,38.3,29.1,29.98,West,270,0.4,0.7,69,0.00,,,0.00,WUHU216HW,2013-01-01 13:41:00,
2013-01-01 08:46:00,38.5,29.6,29.96,SSW,203,0.7,0.7,70,0.00,,,0.00,WUHU216HW,2013-01-01 13:46:00,
2013-01-01 08:51:00,38.5,29.6,29.95,SE,135,0.0,0.7,70,0.00,,,0.00,WUHU216HW,2013-01-01 13:51:00,
2013-01-01 08:56:00,38.5,29.6,29.96,West,270,0.2,0.7,70,0.00,,,0.00,WUHU216HW,2013-01-01 13:56:00,
2013-01-01 09:01:00,38.7,30.1,29.97,NW,315,0.4,0.7,71,0.00,,,0.00,WUHU216HW,2013-01-01 14:01:00,
2013-01-01 09:06:00,38.9,30.2,29.97,NW,315,0.0,0.7,71,0.00,,,0.00,WUHU216HW,2013-01-01 14:06:00,
2013-01-01 09:11:00,38.9,30.2,29.96,NW,315,0.0,0.4,71,0.00,,,0.00,WUHU216HW,2013-01-01 14:11:00,
2013-01-01 09:16:00,39.1,30.4,29.97,North,0,0.0,1.8,71,0.00,,,0.00,WUHU216HW,2013-01-01 14:16:00,
2013-01-01 09:21:00,40.0,31.3,29.97,NNW,338,0.4,1.8,71,0.00,,,0.00,WUHU216HW,2013-01-01 14:21:00,
2013-01-01 09:26:00,40.3,31.7,29.98,NW,315,0.0,1.6,71,0.00,,,0.00,WUHU216HW,2013-01-01 14:26:00,
2013-01-01 09:31:00,40.7,32.1,29.96,ESE,113,0.4,1.1,71,0.00,,,0.00,WUHU216HW,2013-01-01 14:31:00,
2013-01-01 09:36:00,40.9,32.2,29.96,North,0,0.7,1.1,71,0.00,,,0.00,WUHU216HW,2013-01-01 14:36:00,
2013-01-01 09:41:00,41.2,32.2,29.98,WNW,293,0.4,1.1,70,0.00,,,0.00,WUHU216HW,2013-01-01 14:41:00,
2013-01-01 09:46:00,41.4,32.4,29.98,West,270,0.4,1.1,70,0.00,,,0.00,WUHU216HW,2013-01-01 14:46:00,
2013-01-01 09:51:00,41.8,32.8,29.98,West,270,0.4,1.1,70,0.00,,,0.00,WUHU216HW,2013-01-01 14:51:00,
2013-01-01 09:56:00,41.9,33.3,29.96,West,270,0.4,0.9,71,0.00,,,0.00,WUHU216HW,2013-01-01 14:56:00,
2013-01-01 10:01:00,42.3,33.3,29.97,West,270,1.8,2.0,70,0.00,,,0.00,WUHU216HW,2013-01-01 15:01:00,
2013-01-01 10:06:00,42.5,33.1,29.97,WSW,248,1.6,2.2,69,0.00,,,0.00,WUHU216HW,2013-01-01 15:06:00,
2013-01-01 10:11:00,42.8,33.8,29.96,South,180,1.6,2.7,70,0.00,,,0.00,WUHU216HW,2013-01-01 15:11:00,
2013-01-01 10:16:00,43.2,33.8,29.96,NW,315,0.9,2.7,69,0.00,,,0.00,WUHU216HW,2013-01-01 15:16:00,
2013-01-01 10:21:00,43.4,33.9,29.96,West,270,1.1,2.0,69,0.00,,,0.00,WUHU216HW,2013-01-01 15:21:00,
2013-01-01 10:26:00,43.6,33.8,29.96,West,270,1.8,2.9,68,0.00,,,0.00,WUHU216HW,2013-01-01 15:26:00,
2013-01-01 10:31:00,43.6,33.8,29.96,West,270,2.7,2.9,68,0.00,,,0.00,WUHU216HW,2013-01-01 15:31:00,
2013-01-01 10:36:00,43.6,33.8,29.97,West,270,1.1,2.7,68,0.00,,,0.00,WUHU216HW,2013-01-01 15:36:00,
2013-01-01 10:41:00,43.7,33.8,29.98,West,270,1.8,2.5,68,0.00,,,0.00,WUHU216HW,2013-01-01 15:41:00,
2013-01-01 10:46:00,44.1,34.2,29.98,SW,225,1.1,2.2,68,0.00,,,0.00,WUHU216HW,2013-01-01 15:46:00,
2013-01-01 10:51:00,44.1,34.2,29.97,WNW,293,1.1,3.1,68,0.00,,,0.00,WUHU216HW,2013-01-01 15:51:00,
2013-01-01 10:56:00,44.3,34.4,29.98,West,270,1.6,3.1,68,0.00,,,0.00,WUHU216HW,2013-01-01 15:56:00,
2013-01-01 11:01:00,44.3,34.4,29.97,SSE,158,2.0,4.0,68,0.00,,,0.00,WUHU216HW,2013-01-01 16:01:00,
2013-01-01 11:06:00,44.3,34.4,29.96,WSW,248,1.1,4.0,68,0.00,,,0.00,WUHU216HW,2013-01-01 16:06:00,
2013-01-01 11:12:00,44.3,34.4,29.95,WSW,248,0.0,1.8,68,0.00,,,0.00,WUHU216HW,2013-01-01 16:12:00,
2013-01-01 11:17:00,44.3,34.4,29.95,North,0,0.4,2.0,68,0.00,,,0.00,WUHU216HW,2013-01-01 16:17:00,
2013-01-01 11:22:00,44.5,34.6,29.96,WSW,248,1.1,2.0,68,0.00,,,0.00,WUHU216HW,2013-01-01 16:22:00,
2013-01-01 11:27:00,44.5,34.6,29.96,West,270,0.9,1.8,68,0.00,,,0.00,WUHU216HW,2013-01-01 16:27:00,
2013-01-01 11:32:00,44.6,34.8,29.95,SSW,203,0.7,1.8,68,0.00,,,0.00,WUHU216HW,2013-01-01 16:32:00,
2013-01-01 11:37:00,44.8,34.9,29.94,NW,315,0.4,1.6,68,0.00,,,0.00,WUHU216HW,2013-01-01 16:37:00,
2013-01-01 11:42:00,44.6,34.8,29.95,WSW,248,0.9,1.8,68,0.00,,,0.00,WUHU216HW,2013-01-01 16:42:00,
2013-01-01 11:47:00,44.8,34.9,29.94,WSW,248,0.4,1.8,68,0.00,,,0.00,WUHU216HW,2013-01-01 16:47:00,
2013-01-01 11:52:00,44.8,34.9,29.93,SW,225,0.2,1.1,68,0.00,,,0.00,WUHU216HW,2013-01-01 16:52:00,
2013-01-01 11:57:00,44.5,34.6,29.93,West,270,0.7,1.6,68,0.00,,,0.00,WUHU216HW,2013-01-01 16:57:00,
2013-01-01 12:02:00,44.5,34.6,29.93,West,270,1.3,1.6,68,0.00,,,0.00,WUHU216HW,2013-01-01 17:02:00,
2013-01-01 12:07:00,44.6,34.8,29.93,North,0,0.4,1.3,68,0.00,,,0.00,WUHU216HW,2013-01-01 17:07:00,
2013-01-01 12:12:00,44.8,34.9,29.93,NW,315,0.4,1.1,68,0.00,,,0.00,WUHU216HW,2013-01-01 17:12:00,
2013-01-01 12:17:00,45.0,35.5,29.93,West,270,0.0,1.1,69,0.00,,,0.00,WUHU216HW,2013-01-01 17:17:00,
2013-01-01 12:22:00,45.0,35.5,29.93,WSW,248,0.0,1.1,69,0.00,,,0.00,WUHU216HW,2013-01-01 17:22:00,
2013-01-01 12:27:00,45.0,35.1,29.92,WSW,248,0.0,1.1,68,0.00,,,0.00,WUHU216HW,2013-01-01 17:27:00,
2013-01-01 12:32:00,45.0,35.1,29.92,NNW,338,0.4,1.1,68,0.00,,,0.00,WUHU216HW,2013-01-01 17:32:00,
2013-01-01 12:37:00,45.0,35.5,29.92,SW,225,0.0,1.3,69,0.00,,,0.00,WUHU216HW,2013-01-01 17:37:00,
2013-01-01 12:42:00,45.0,35.5,29.92,WNW,293,0.9,2.2,69,0.00,,,0.00,WUHU216HW,2013-01-01 17:42:00,
2013-01-01 12:47:00,44.8,35.6,29.92,SSW,203,1.8,2.2,70,0.00,,,0.00,WUHU216HW,2013-01-01 17:47:00,
2013-01-01 12:52:00,44.5,34.9,29.92,SW,225,1.1,1.8,69,0.00,,,0.00,WUHU216HW,2013-01-01 17:52:00,
2013-01-01 12:57:00,44.5,35.3,29.91,West,270,0.0,1.1,70,0.00,,,0.00,WUHU216HW,2013-01-01 17:57:00,
2013-01-01 13:02:00,44.6,35.5,29.91,NNW,338,0.7,1.1,70,0.00,,,0.00,WUHU216HW,2013-01-01 18:02:00,
2013-01-01 13:07:00,44.8,35.6,29.90,NW,315,0.0,1.1,70,0.00,,,0.00,WUHU216HW,2013-01-01 18:07:00,
2013-01-01 13:12:00,44.6,35.5,29.90,WSW,248,0.0,1.3,70,0.00,,,0.00,WUHU216HW,2013-01-01 18:12:00,
2013-01-01 13:17:00,44.8,35.6,29.90,West,270,0.4,1.3,70,0.00,,,0.00,WUHU216HW,2013-01-01 18:17:00,
2013-01-01 13:22:00,45.0,35.5,29.90,West,270,0.7,0.7,69,0.00,,,0.00,WUHU216HW,2013-01-01 18:22:00,
2013-01-01 13:27:00,45.2,35.7,29.89,WNW,293,0.0,0.7,69,0.00,,,0.00,WUHU216HW,2013-01-01 18:27:00,
2013-01-01 13:32:00,45.2,35.7,29.89,West,270,0.4,0.4,69,0.00,,,0.00,WUHU216HW,2013-01-01 18:32:00,
2013-01-01 13:37:00,45.2,35.7,29.89,West,270,0.0,1.3,69,0.00,,,0.00,WUHU216HW,2013-01-01 18:37:00,
2013-01-01 13:43:00,45.2,35.2,29.89,NW,315,0.7,1.6,68,0.00,,,0.00,WUHU216HW,2013-01-01 18:43:00,
2013-01-01 13:48:00,45.4,35.4,29.90,WSW,248,0.0,1.8,68,0.00,,,0.00,WUHU216HW,2013-01-01 18:48:00,
2013-01-01 13:53:00,45.5,35.6,29.90,SW,225,0.9,1.8,68,0.00,,,0.00,WUHU216HW,2013-01-01 18:53:00,
2013-01-01 13:58:00,45.5,35.6,29.90,WSW,248,0.4,1.3,68,0.00,,,0.00,WUHU216HW,2013-01-01 18:58:00,
2013-01-01 14:03:00,45.5,35.6,29.90,WNW,293,0.0,2.5,68,0.00,,,0.00,WUHU216HW,2013-01-01 19:03:00,
2013-01-01 14:08:00,45.7,35.7,29.89,SSE,158,1.1,2.5,68,0.00,,,0.00,WUHU216HW,2013-01-01 19:08:00,
2013-01-01 14:13:00,45.9,35.9,29.89,North,0,0.4,1.6,68,0.00,,,0.00,WUHU216HW,2013-01-01 19:13:00,
2013-01-01 14:18:00,45.9,35.9,29.90,West,270,0.0,1.6,68,0.00,,,0.00,WUHU216HW,2013-01-01 19:18:00,
2013-01-01 14:23:00,45.9,35.9,29.89,ENE,68,0.0,1.3,68,0.00,,,0.00,WUHU216HW,2013-01-01 19:23:00,
2013-01-01 14:28:00,46.1,36.1,29.89,SE,135,1.8,1.8,68,0.00,,,0.00,WUHU216HW,2013-01-01 19:28:00,
2013-01-01 14:33:00,46.3,35.9,29.89,SE,135,0.9,1.8,67,0.00,,,0.00,WUHU216HW,2013-01-01 19:33:00,
2013-01-01 14:38:00,46.1,35.7,29.90,West,270,0.2,1.8,67,0.00,,,0.00,WUHU216HW,2013-01-01 19:38:00,
2013-01-01 14:43:00,45.9,35.6,29.90,West,270,0.0,1.8,67,0.00,,,0.00,WUHU216HW,2013-01-01 19:43:00,
2013-01-01 14:48:00,45.7,35.4,29.91,SSW,203,0.0,0.7,67,0.00,,,0.00,WUHU216HW,2013-01-01 19:48:00,
2013-01-01 14:53:00,45.7,35.4,29.91,East,90,1.8,1.8,67,0.00,,,0.00,WUHU216HW,2013-01-01 19:53:00,
2013-01-01 14:58:00,45.5,35.6,29.91,SSE,158,0.0,1.8,68,0.00,,,0.00,WUHU216HW,2013-01-01 19:58:00,
2013-01-01 15:03:00,45.5,35.6,29.91,SSW,203,0.0,1.1,68,0.00,,,0.00,WUHU216HW,2013-01-01 20:03:00,
2013-01-01 15:08:00,45.5,35.6,29.91,West,270,0.0,0.7,68,0.00,,,0.00,WUHU216HW,2013-01-01 20:08:00,
2013-01-01 15:13:00,45.5,35.2,29.91,West,270,0.0,0.7,67,0.00,,,0.00,WUHU216HW,2013-01-01 20:13:00,
2013-01-01 15:18:00,45.7,35.7,29.91,West,270,0.0,0.0,68,0.00,,,0.00,WUHU216HW,2013-01-01 20:18:00,
2013-01-01 15:23:00,45.7,35.7,29.91,SSW,203,0.0,0.0,68,0.00,,,0.00,WUHU216HW,2013-01-01 20:23:00,
2013-01-01 15:28:00,45.9,35.9,29.90,SE,135,1.1,1.6,68,0.00,,,0.00,WUHU216HW,2013-01-01 20:28:00,
2013-01-01 15:33:00,46.1,36.1,29.89,SSE,158,1.3,1.6,68,0.00,,,0.00,WUHU216HW,2013-01-01 20:33:00,
2013-01-01 15:38:00,45.9,35.9,29.90,SSE,158,1.3,2.2,68,0.00,,,0.00,WUHU216HW,2013-01-01 20:38:00,
2013-01-01 15:43:00,45.7,35.7,29.90,SSE,158,2.5,3.1,68,0.00,,,0.00,WUHU216HW,2013-01-01 20:43:00,
2013-01-01 15:48:00,45.5,35.6,29.90,SSE,158,1.3,3.1,68,0.00,,,0.00,WUHU216HW,2013-01-01 20:48:00,
2013-01-01 15:53:00,45.2,35.2,29.92,SSW,203,0.2,2.7,68,0.00,,,0.00,WUHU216HW,2013-01-01 20:53:00,
2013-01-01 15:58:00,45.0,35.5,29.93,SW,225,0.0,1.6,69,0.00,,,0.00,WUHU216HW,2013-01-01 20:58:00,
2013-01-01 16:03:00,44.8,35.3,29.93,East,90,1.3,1.8,69,0.00,,,0.00,WUHU216HW,2013-01-01 21:03:00,
2013-01-01 16:08:00,44.6,35.1,29.92,ESE,113,1.1,1.8,69,0.00,,,0.00,WUHU216HW,2013-01-01 21:08:00,
2013-01-01 16:13:00,44.3,35.1,29.92,East,90,1.1,1.8,70,0.00,,,0.00,WUHU216HW,2013-01-01 21:13:00,
2013-01-01 16:18:00,43.9,34.8,29.93,East,90,0.0,1.8,70,0.00,,,0.00,WUHU216HW,2013-01-01 21:18:00,
2013-01-01 16:23:00,43.9,35.2,29.93,East,90,0.0,1.1,71,0.00,,,0.00,WUHU216HW,2013-01-01 21:23:00,
2013-01-01 16:28:00,43.6,34.8,29.93,East,90,0.0,0.4,71,0.00,,,0.00,WUHU216HW,2013-01-01 21:28:00,
2013-01-01 16:33:00,43.4,34.7,29.92,East,90,0.0,0.7,71,0.00,,,0.00,WUHU216HW,2013-01-01 21:33:00,
2013-01-01 16:38:00,43.2,34.2,29.93,SE,135,1.1,1.8,70,0.00,,,0.00,WUHU216HW,2013-01-01 21:38:00,
2013-01-01 16:43:00,42.8,33.8,29.93,ESE,113,0.7,1.8,70,0.00,,,0.00,WUHU216HW,2013-01-01 21:43:00,
2013-01-01 16:48:00,42.7,34.0,29.94,ESE,113,0.9,1.3,71,0.00,,,0.00,WUHU216HW,2013-01-01 21:48:00,
2013-01-01 16:53:00,42.5,33.9,29.94,East,90,0.4,1.3,71,0.00,,,0.00,WUHU216HW,2013-01-01 21:53:00,
2013-01-01 16:58:00,42.5,33.9,29.94,East,90,0.0,1.1,71,0.00,,,0.00,WUHU216HW,2013-01-01 21:58:00,
2013-01-01 17:03:00,42.5,33.9,29.94,NE,45,0.0,1.6,71,0.00,,,0.00,WUHU216HW,2013-01-01 22:03:00,
2013-01-01 17:08:00,42.5,33.9,29.93,North,0,0.7,1.6,71,0.00,,,0.00,WUHU216HW,2013-01-01 22:08:00,
2013-01-01 17:13:00,42.3,33.7,29.93,WSW,248,0.0,1.1,71,0.00,,,0.00,WUHU216HW,2013-01-01 22:13:00,
2013-01-01 17:18:00,42.1,33.5,29.94,ENE,68,0.4,0.4,71,0.00,,,0.00,WUHU216HW,2013-01-01 22:18:00,
2013-01-01 17:23:00,41.9,33.3,29.93,ENE,68,0.7,0.7,71,0.00,,,0.00,WUHU216HW,2013-01-01 22:23:00,
2013-01-01 17:28:00,41.8,33.1,29.94,SE,135,0.0,0.9,71,0.00,,,0.00,WUHU216HW,2013-01-01 22:28:00,
2013-01-01 17:33:00,41.6,33.0,29.93,SE,135,1.3,1.3,71,0.00,,,0.00,WUHU216HW,2013-01-01 22:33:00,
2013-01-01 17:38:00,41.4,32.8,29.93,SSE,158,0.0,1.3,71,0.00,,,0.00,WUHU216HW,2013-01-01 22:38:00,
2013-01-01 17:43:00,41.4,32.8,29.94,ENE,68,0.0,1.1,71,0.00,,,0.00,WUHU216HW,2013-01-01 22:43:00,
2013-01-01 17:48:00,41.2,32.6,29.93,ENE,68,0.0,0.4,71,0.00,,,0.00,WUHU216HW,2013-01-01 22:48:00,
2013-01-01 17:53:00,41.0,32.4,29.94,ESE,113,0.0,0.9,71,0.00,,,0.00,WUHU216HW,2013-01-01 22:53:00,
2013-01-01 17:58:00,40.9,32.5,29.94,ESE,113,0.0,0.9,72,0.00,,,0.00,WUHU216HW,2013-01-01 22:58:00,
2013-01-01 18:03:00,40.7,32.3,29.95,ESE,113,0.0,0.0,72,0.00,,,0.00,WUHU216HW,2013-01-01 23:03:00,
2013-01-01 18:08:00,40.7,33.0,29.95,ENE,68,0.7,0.9,74,0.00,,,0.00,WUHU216HW,2013-01-01 23:08:00,
2013-01-01 18:13:00,40.7,33.0,29.94,ENE,68,2.0,2.0,74,0.00,,,0.00,WUHU216HW,2013-01-01 23:13:00,
2013-01-01 18:18:00,40.7,32.7,29.95,ENE,68,0.0,2.0,73,0.00,,,0.00,WUHU216HW,2013-01-01 23:18:00,
2013-01-01 18:23:00,40.5,32.5,29.95,SSE,158,0.2,1.1,73,0.00,,,0.00,WUHU216HW,2013-01-01 23:23:00,
2013-01-01 18:28:00,40.1,32.5,29.95,West,270,0.4,1.1,74,0.00,,,0.00,WUHU216HW,2013-01-01 23:28:00,
2013-01-01 18:33:00,40.0,32.3,29.94,SSE,158,0.4,1.1,74,0.00,,,0.00,WUHU216HW,2013-01-01 23:33:00,
2013-01-01 18:38:00,39.8,32.5,29.95,SW,225,0.0,0.7,75,0.00,,,0.00,WUHU216HW,2013-01-01 23:38:00,
2013-01-01 18:43:00,39.8,32.5,29.95,NNW,338,0.0,0.7,75,0.00,,,0.00,WUHU216HW,2013-01-01 23:43:00,
2013-01-01 18:48:00,39.8,32.5,29.95,NNW,338,0.0,0.0,75,0.00,,,0.00,WUHU216HW,2013-01-01 23:48:00,
2013-01-01 18:53:00,39.6,32.3,29.96,NNW,338,0.0,0.0,75,0.00,,,0.00,WUHU216HW,2013-01-01 23:53:00,
2013-01-01 18:58:00,39.4,32.1,29.97,NNW,338,0.0,0.0,75,0.00,,,0.00,WUHU216HW,2013-01-01 23:58:00,
2013-01-01 19:03:00,39.4,32.5,29.96,North,0,0.0,0.0,76,0.00,,,0.00,WUHU216HW,2013-01-02 00:03:00,
2013-01-01 19:08:00,39.6,32.3,29.96,NE,45,0.0,0.4,75,0.00,,,0.00,WUHU216HW,2013-01-02 00:08:00,
2013-01-01 19:13:00,39.6,32.3,29.96,NE,45,0.0,0.4,75,0.00,,,0.00,WUHU216HW,2013-01-02 00:13:00,
2013-01-01 19:18:00,39.6,32.7,29.95,ENE,68,0.0,1.1,76,0.00,,,0.00,WUHU216HW,2013-01-02 00:18:00,
2013-01-01 19:23:00,39.6,32.9,29.96,NNW,338,0.0,1.1,77,0.00,,,0.00,WUHU216HW,2013-01-02 00:23:00,
2013-01-01 19:28:00,39.6,32.7,29.95,East,90,0.4,1.6,76,0.00,,,0.00,WUHU216HW,2013-01-02 00:28:00,
2013-01-01 19:33:00,39.6,32.7,29.95,East,90,3.1,3.4,76,0.00,,,0.00,WUHU216HW,2013-01-02 00:33:00,
2013-01-01 19:38:00,39.6,32.9,29.95,ESE,113,2.2,3.4,77,0.00,,,0.00,WUHU216HW,2013-01-02 00:38:00,
2013-01-01 19:43:00,39.4,32.5,29.96,ESE,113,1.8,2.9,76,0.00,,,0.00,WUHU216HW,2013-01-02 00:43:00,
2013-01-01 19:48:00,39.2,32.7,29.95,ESE,113,1.3,1.8,77,0.00,,,0.00,WUHU216HW,2013-01-02 00:48:00,
2013-01-01 19:53:00,39.2,32.7,29.96,East,90,0.7,1.8,77,0.00,,,0.00,WUHU216HW,2013-01-02 00:53:00,
2013-01-01 19:58:00,39.2,32.7,29.95,ESE,113,0.7,1.8,77,0.00,,,0.00,WUHU216HW,2013-01-02 00:58:00,
2013-01-01 20:03:00,39.2,32.7,29.96,NE,45,0.7,0.9,77,0.00,,,0.00,WUHU216HW,2013-01-02 01:03:00,
2013-01-01 20:08:00,39.2,32.7,29.97,NE,45,0.4,0.9,77,0.00,,,0.00,WUHU216HW,2013-01-02 01:08:00,
2013-01-01 20:13:00,39.2,32.7,29.98,ENE,68,0.4,2.5,77,0.00,,,0.00,WUHU216HW,2013-01-02 01:13:00,
2013-01-01 20:18:00,39.2,32.3,29.97,ENE,68,1.6,3.1,76,0.00,,,0.00,WUHU216HW,2013-01-02 01:18:00,
2013-01-01 20:24:00,39.4,32.5,29.98,East,90,1.6,3.1,76,0.00,,,0.00,WUHU216HW,2013-01-02 01:24:00,
2013-01-01 20:29:00,39.2,32.3,29.97,ESE,113,0.7,2.5,76,0.00,,,0.00,WUHU216HW,2013-01-02 01:29:00,
2013-01-01 20:34:00,39.2,32.3,29.97,East,90,1.8,2.2,76,0.00,,,0.00,WUHU216HW,2013-01-02 01:34:00,
2013-01-01 20:39:00,39.2,32.3,29.98,ENE,68,1.3,2.2,76,0.00,,,0.00,WUHU216HW,2013-01-02 01:39:00,
2013-01-01 20:44:00,39.2,32.0,29.98,ESE,113,1.6,2.2,75,0.00,,,0.00,WUHU216HW,2013-01-02 01:44:00,
2013-01-01 20:49:00,39.2,32.3,29.97,ESE,113,2.0,3.4,76,0.00,,,0.00,WUHU216HW,2013-01-02 01:49:00,
2013-01-01 20:54:00,39.1,32.1,29.97,ESE,113,2.2,3.4,76,0.00,,,0.00,WUHU216HW,2013-01-02 01:54:00,
2013-01-01 20:59:00,39.1,31.8,29.97,East,90,1.3,4.0,75,0.00,,,0.00,WUHU216HW,2013-01-02 01:59:00,
2013-01-01 21:04:00,38.9,31.6,29.97,ESE,113,2.0,4.0,75,0.00,,,0.00,WUHU216HW,2013-01-02 02:04:00,
2013-01-01 21:09:00,38.9,31.6,29.97,ESE,113,1.1,2.0,75,0.00,,,0.00,WUHU216HW,2013-01-02 02:09:00,
2013-01-01 21:14:00,38.9,31.6,29.98,ESE,113,2.0,2.0,75,0.00,,,0.00,WUHU216HW,2013-01-02 02:14:00,
2013-01-01 21:19:00,38.7,31.4,29.98,East,90,0.4,2.0,75,0.00,,,0.00,WUHU216HW,2013-01-02 02:19:00,
2013-01-01 21:24:00,38.7,31.8,29.98,East,90,1.1,2.0,76,0.00,,,0.00,WUHU216HW,2013-01-02 02:24:00,
2013-01-01 21:29:00,38.7,31.8,29.98,East,90,0.9,1.8,76,0.00,,,0.00,WUHU216HW,2013-01-02 02:29:00,
2013-01-01 21:34:00,38.7,31.8,29.99,ESE,113,1.3,1.8,76,0.00,,,0.00,WUHU216HW,2013-01-02 02:34:00,
2013-01-01 21:39:00,38.5,31.6,29.99,East,90,0.9,1.8,76,0.00,,,0.00,WUHU216HW,2013-01-02 02:39:00,
2013-01-01 21:44:00,38.5,32.0,29.99,East,90,0.7,1.8,77,0.00,,,0.00,WUHU216HW,2013-01-02 02:44:00,
2013-01-01 21:49:00,38.5,31.6,29.99,NNE,23,0.2,1.3,76,0.00,,,0.00,WUHU216HW,2013-01-02 02:49:00,
2013-01-01 21:54:00,38.5,31.6,29.99,East,90,1.3,1.3,76,0.00,,,0.00,WUHU216HW,2013-01-02 02:54:00,
2013-01-01 21:59:00,38.5,31.6,29.98,East,90,0.9,1.3,76,0.00,,,0.00,WUHU216HW,2013-01-02 02:59:00,
2013-01-01 22:04:00,38.3,31.8,29.98,East,90,0.7,1.3,77,0.00,,,0.00,WUHU216HW,2013-01-02 03:04:00,
2013-01-01 22:09:00,38.5,31.6,29.98,East,90,0.4,1.1,76,0.00,,,0.00,WUHU216HW,2013-01-02 03:09:00,
2013-01-01 22:14:00,38.3,31.4,29.97,East,90,0.9,1.3,76,0.00,,,0.00,WUHU216HW,2013-01-02 03:14:00,
2013-01-01 22:19:00,38.3,31.8,29.98,East,90,0.7,1.3,77,0.00,,,0.00,WUHU216HW,2013-01-02 03:19:00,
2013-01-01 22:24:00,38.2,31.2,29.98,ESE,113,0.0,1.1,76,0.00,,,0.00,WUHU216HW,2013-01-02 03:24:00,
2013-01-01 22:29:00,38.2,31.2,29.97,East,90,1.1,1.6,76,0.00,,,0.00,WUHU216HW,2013-01-02 03:29:00,
2013-01-01 22:34:00,38.0,31.4,29.98,ENE,68,0.9,1.6,77,0.00,,,0.00,WUHU216HW,2013-01-02 03:34:00,
2013-01-01 22:39:00,38.2,31.2,29.97,East,90,1.1,1.3,76,0.00,,,0.00,WUHU216HW,2013-01-02 03:39:00,
2013-01-01 22:44:00,38.2,31.2,29.98,ENE,68,0.9,1.8,76,0.00,,,0.00,WUHU216HW,2013-01-02 03:44:00,
2013-01-01 22:49:00,38.3,31.1,29.98,East,90,0.9,1.8,75,0.00,,,0.00,WUHU216HW,2013-01-02 03:49:00,
2013-01-01 22:54:00,38.3,31.1,29.98,ENE,68,1.8,1.8,75,0.00,,,0.00,WUHU216HW,2013-01-02 03:54:00,
2013-01-01 22:59:00,38.2,31.0,29.98,East,90,1.1,1.8,75,0.00,,,0.00,WUHU216HW,2013-01-02 03:59:00,
2013-01-01 23:04:00,38.3,31.1,29.97,NE,45,3.4,3.4,75,0.00,,,0.00,WUHU216HW,2013-01-02 04:04:00,
2013-01-01 23:09:00,38.3,31.1,29.98,NE,45,1.1,3.4,75,0.00,,,0.00,WUHU216HW,2013-01-02 04:09:00,
2013-01-01 23:14:00,38.2,31.0,29.98,ENE,68,1.6,1.8,75,0.00,,,0.00,WUHU216HW,2013-01-02 04:14:00,
2013-01-01 23:19:00,38.2,30.6,29.99,NE,45,1.6,2.5,74,0.00,,,0.00,WUHU216HW,2013-01-02 04:19:00,
2013-01-01 23:24:00,38.2,31.0,29.99,NE,45,2.2,2.5,75,0.00,,,0.00,WUHU216HW,2013-01-02 04:24:00,
2013-01-01 23:29:00,38.2,31.0,29.98,NNE,23,0.9,2.2,75,0.00,,,0.00,WUHU216HW,2013-01-02 04:29:00,
2013-01-01 23:34:00,38.3,31.1,29.98,NE,45,1.3,1.8,75,0.00,,,0.00,WUHU216HW,2013-01-02 04:34:00,
2013-01-01 23:39:00,38.3,30.8,29.98,NNE,23,0.4,1.8,74,0.00,,,0.00,WUHU216HW,2013-01-02 04:39:00,
2013-01-01 23:44:00,38.3,30.8,29.98,NE,45,1.8,1.8,74,0.00,,,0.00,WUHU216HW,2013-01-02 04:44:00,
2013-01-01 23:49:00,38.2,30.6,29.98,NE,45,1.6,1.8,74,0.00,,,0.00,WUHU216HW,2013-01-02 04:49:00,
2013-01-01 23:54:00,38.3,30.8,29.98,NE,45,1.6,2.0,74,0.00,,,0.00,WUHU216HW,2013-01-02 04:54:00,
2013-01-01 23:59:00,38.3,30.4,29.98,ENE,68,1.1,2.0,73,0.00,,,0.00,WUHU216HW,2013-01-02 04:59:00,